Regional Weather Roundup
Issued by NWS

Home | Current Version | Previous Version | Graphics & Text | Print | Product List | Glossary On
Versions: 1 2 3 4 5 6 7 8 9 10 11 12 13 14 15 16 17 18 19 20 21 22 23 24 25 26 27 28 29 30 31 32 33 34 35 36 37 38 39 40 41 42 43 44 45 46 47 48 49 50
000
ASUS43 KDMX 221407
RWRIA

WEATHER ROUNDUP FOR IOWA
NATIONAL WEATHER SERVICE DES MOINES IA
900 AM CDT FRI MAY 22 2015

NOTE: "FAIR" INDICATES FEW OR NO CLOUDS BELOW 12,000 FEET WITH NO
SIGNIFICANT WEATHER AND/OR OBSTRUCTIONS TO VISIBILITY.

* - THESE STATIONS ARE NOT NWS STATIONS...THUS NOT UNDER NWS
QUALITY CONTROL.  THEY ALSO DO NOT REPORT WEATHER SUCH
AS PRECIPITATION OR FOG.

IAZ001>003-012>014-020>022-031>034-043>046-221500-
   NORTHWEST IOWA

CITY           SKY/WX    TMP DP  RH WIND       PRES   REMARKS
CARROLL *      SUNNY     61  43  51 N6        30.22R
CHEROKEE *     SUNNY     55  48  76 CALM      30.22R
DENISON *      SUNNY     61  46  59 NW5       30.20S
LE MARS *      SUNNY     59  46  63 CALM      30.22S
ORANGE CITY *  SUNNY     59  43  55 CALM      30.21R
SHELDON *      SUNNY     61  37  41 CALM      30.20S
SIOUX CITY     MOSUNNY   59  43  55 S3        30.22R
SPENCER        SUNNY     61  42  49 CALM      30.21R
STORM LAKE *   SUNNY     63  37  39 CALM      30.22R
$$

IAZ055>058-069>071-079>083-090>094-221500-
   SOUTHWEST IOWA

CITY           SKY/WX    TMP DP  RH WIND       PRES   REMARKS
ATLANTIC *     SUNNY     61  45  55 CALM      30.23R
AUDUBON *      SUNNY     64  46  52 CALM      30.22S
CLARINDA *     SUNNY     57  48  72 CALM      30.26R
COUNCIL BLFS * SUNNY     59  46  63 CALM      30.23S
CRESTON *        N/A     61  46  59 NW10      30.23R
HARLAN  *      SUNNY     61  50  67 CALM      30.26R
LAMONI         MOSUNNY   63  47  55 NW7       30.22R
RED OAK *      SUNNY     57  50  77 CALM      30.24R
SHENANDOAH *   SUNNY     59  48  67 CALM      30.25R
$$

IAZ047>049-059>061-072>074-084-221500-
   CENTRAL IOWA

CITY           SKY/WX    TMP DP  RH WIND       PRES   REMARKS
AMES           SUNNY     59  42  53 N3        30.20S
ANKENY *       SUNNY     61  45  55 W6        30.21R
CHARITON *     SUNNY     61  46  59 NW6       30.21R
DES MOINES     CLOUDY    62  45  53 NW5       30.21R
GRINNELL*      SUNNY     61  43  51 NW3       30.21R
KNOXVILLE *    SUNNY     59  43  55 NW7       30.20R
MARSHALLTOWN   SUNNY     63  41  44 N5        30.19S
PELLA *        SUNNY     63  50  63 NW5       30.22R
PERRY *          N/A     61  45  55 N7        30.22R
$$

IAZ004>006-015-016-023>025-035-036-221500-
   NORTH CENTRAL IOWA

CITY           SKY/WX    TMP DP  RH WIND       PRES   REMARKS
ALGONA *       SUNNY     61  41  48 N8        30.21S
CLARION *      SUNNY     61  41  48 NE5       30.21R
ESTHERVILLE    SUNNY     62  41  46 N6        30.21R
FORT DODGE *   SUNNY     59  43  55 N3        30.21S
MASON CITY     SUNNY     62  39  42 CALM      30.21R
FOREST CITY *  SUNNY     57  41  54 CALM      30.21R
IOWA FALLS *     N/A     63  37  39 CALM      30.21R
$$

IAZ007>011-017>019-026>030-037>042-050>054-066-221500-
   NORTHEAST IOWA

CITY           SKY/WX    TMP DP  RH WIND       PRES   REMARKS
CEDAR RAPIDS   SUNNY     61  44  53 N3        30.18S
CHARLES CITY * SUNNY     63  39  42 CALM      30.20R
CLINTON *      SUNNY     61  46  59 E5        30.21R
DECORAH *      SUNNY     57  41  54 CALM      30.18S
DUBUQUE        SUNNY     58  44  60 SE6       30.19R
MONTICELLO *   SUNNY     59  46  63 NE3       30.19R
OELWEIN *      SUNNY     63  41  45 CALM      30.20R
WATERLOO       SUNNY     61  44  53 NW3       30.20R
$$

IAZ064-065-067-068-078-221500-
   EAST CENTRAL IOWA

CITY           SKY/WX    TMP DP  RH WIND       PRES   REMARKS
DAVENPORT      SUNNY     61  43  51 CALM      30.19R
IOWA CITY      SUNNY     63  43  48 NE3       30.20R
MT. PLEASANT * SUNNY     61  46  59 CALM      30.20R
MUSCATINE *    SUNNY     61  43  51 CALM      30.20R
QUAD CITIES    SUNNY     62  42  47 CALM      30.18R
$$

IAZ062-063-075>077-085>089-095>099-221500-
   SOUTHEAST IOWA

CITY           SKY/WX    TMP DP  RH WIND       PRES   REMARKS
BURLINGTON     SUNNY     62  48  60 CALM      30.19R
FAIRFIELD *    SUNNY     59  46  63 NW6       30.20R
FORT MADISON * SUNNY     61  48  63 CALM      30.21R
KEOKUK *       SUNNY     61  46  59 NW5       30.20R
OSKALOOSA *      N/A     61  43  51 NW6       30.20S
CENTERVILLE *  SUNNY     63  63 100 NW7       30.23R
OTTUMWA        SUNNY     60  47  61 W5        30.20R
WASHINGTON *   SUNNY     63  43  48 CALM      30.21R
$$

ABBREVIATIONS USED IN REMARKS
   TC - TEMPERATURES IN CELSIUS
  WCI - WIND CHILL INDEX
   HX - HEAT INDEX
  VSB - VISIBILITY
$$



USA.gov is the U.S. government's official web portal to all federal, state and local government web resources and services.